Retour au catalogue

HULIANWANG DIGUI-184

ActifScienceLEO
NORAD 100209·PAYLOAD·🇨🇳 China

Lancé Aug 4, 2026 depuis Wenchang Space Launch Site

Loading…

Prochains Passages (prochaines 24 heures)

TLE

FraisSource: Space-Track

Époque: Sep 14, 2026, 15:43 UTC

1 A0209U 26176G   26257.65539425 -.00000091  00000-0  70702-4 0  9995
2 A0209  49.9963 244.8030 0000217   2.7461 357.3412 13.29327700  5525

Suivez HULIANWANG DIGUI-184 en temps réel avec AllMySat

Download on the App Store